Wind_Speed
67 66 66 66 66 66 65 64 64 64 64 64 64 63 63 62 62 62 62 62 62 62 62 63 63 63 63 64 64 64 65 65 66 66 66 67 68 68 69 69 70 71 71 72 72 72 72 73 73 72 72 72 72 72 71 71 70 70 70 69 68 68 68 67 67 67 68 69 69 68 67 65 63 62 61 60 59 57 55 55 54 53 52 52 49
69 68 67 67 67 67 67 67 67 66 66 66 66 66 66 66 66 65 65 65 65 65 65 65 66 66 66 66 66 66 67 67 68 68 68 69 69 70 70 70 71 71 72 73 73 73 74 74 75 74 74 74 74 74 73 73 72 72 72 71 70 70 69 69 68 69 70 71 71 70 70 69 67 66 66 64 62 60 58 58 57 56 55 55 53
71 69 69 68 69 68 68 68 68 68 69 69 69 69 68 68 69 69 68 68 67 67 67 68 69 69 69 69 69 69 69 69 69 70 70 71 71 71 72 72 72 72 73 73 74 74 75 76 76 76 76 76 76 76 75 75 75 74 74 73 72 72 71 70 69 69 70 72 74 73 72 72 71 70 70 68 66 64 61 60 60 59 58 57 56
74 73 71 70 70 70 69 69 70 70 70 71 71 71 71 71 71 71 71 71 71 70 71 71 71 72 72 72 72 72 72 72 72 72 72 72 72 72 73 73 73 74 74 74 75 75 75 76 77 78 77 77 78 78 77 77 77 76 76 75 75 74 73 72 71 70 71 72 75 75 75 74 74 74 73 71 70 68 66 64 62 61 61 59 58
78 77 75 74 73 73 72 71 71 72 72 72 72 73 73 73 74 74 74 74 74 74 74 74 75 75 75 76 76 76 76 75 75 75 75 75 75 75 74 74 74 74 75 75 76 76 77 77 78 78 78 79 79 79 79 78 78 78 78 78 77 76 75 74 73 72 72 72 74 76 76 76 76 76 76 75 74 72 70 68 66 65 64 63 62
79 79 79 78 77 77 76 75 74 74 73 73 73 73 74 74 75 76 76 76 76 76 76 77 77 78 78 78 78 78 78 78 78 78 78 78 78 78 77 77 76 76 76 77 77 77 78 79 80 80 79 79 80 81 81 80 79 79 79 79 79 78 77 76 75 74 73 73 75 76 77 77 77 78 79 78 77 76 74 73 72 70 69 67 65
79 80 80 80 80 80 80 79 78 78 77 76 75 75 75 76 77 78 78 78 78 78 78 79 80 80 80 80 80 80 80 80 80 80 80 80 80 80 80 79 79 79 79 79 79 79 80 80 81 82 81 81 81 81 82 81 81 81 80 80 80 79 79 78 77 76 75 75 76 77 77 78 78 79 80 80 79 79 78 77 76 75 73 71 69
79 80 80 81 81 81 81 81 81 80 79 79 78 78 78 79 80 80 80 80 79 79 80 81 82 82 82 83 83 83 83 83 83 82 82 82 82 82 82 81 81 82 82 82 82 82 82 82 82 83 83 83 83 83 83 83 82 82 82 81 81 80 80 79 79 78 77 76 77 78 78 78 79 79 80 81 81 81 81 80 79 79 78 76 74
80 79 79 80 80 81 81 81 81 81 80 80 81 82 83 84 84 85 85 83 82 82 82 83 84 84 84 84 85 85 85 84 84 85 85 84 84 83 83 83 83 83 84 84 85 85 85 85 85 85 85 85 85 85 85 85 84 84 84 84 83 82 81 80 80 80 79 78 78 79 79 79 80 81 81 82 82 82 82 82 82 82 81 79 78
80 80 79 79 79 80 79 79 79 78 75 75 78 81 83 86 87 87 87 87 86 86 86 87 87 87 87 86 86 86 86 86 86 86 86 85 85 84 83 84 84 84 85 85 85 86 86 87 87 88 88 88 88 87 87 87 87 86 86 85 85 84 83 82 81 81 80 80 80 80 80 80 81 82 82 82 83 83 84 84 84 84 83 82 81
79 80 79 79 78 79 78 78 76 71 66 67 74 79 83 85 85 84 85 87 88 89 90 91 91 91 91 90 89 89 89 89 89 88 87 86 85 84 84 85 85 85 85 85 86 86 87 87 88 89 90 90 90 90 90 90 89 88 87 87 86 85 84 84 83 82 81 81 81 81 81 81 83 84 83 83 84 84 84 85 85 85 85 84 84
77 78 78 78 78 78 78 78 75 70 67 67 68 74 81 83 82 81 82 84 87 89 90 92 94 94 94 93 92 92 93 93 92 91 90 88 87 87 86 86 86 86 86 86 86 87 87 88 89 89 90 91 92 92 92 92 92 91 90 89 88 87 86 85 84 84 83 82 81 82 82 83 85 85 85 84 84 84 84 84 85 86 86 86 86
73 74 75 76 76 77 77 77 75 73 73 73 69 71 78 82 82 83 84 84 85 88 90 92 94 95 95 95 95 96 97 97 96 94 93 92 91 90 89 89 88 88 88 87 87 88 89 89 90 90 91 92 92 93 93 93 93 93 92 91 91 90 88 86 85 85 85 84 82 82 83 85 85 86 87 86 85 84 84 84 85 85 85 86 87
69 70 71 73 74 74 75 76 74 72 73 76 76 78 81 84 85 86 86 86 87 88 90 91 93 95 96 96 97 98 99 99 98 97 96 95 95 94 93 92 91 91 90 90 90 91 91 92 92 93 93 94 94 93 93 93 93 93 93 92 92 91 90 88 87 86 86 85 83 83 85 86 85 87 88 87 85 85 84 84 84 84 84 85 85
64 65 67 69 71 72 73 73 73 73 73 75 79 83 86 87 86 86 86 87 88 89 89 90 92 94 96 97 98 98 99 100 99 99 98 98 97 96 95 94 93 93 93 93 94 95 96 96 97 97 97 97 97 96 95 94 93 93 92 92 91 91 91 90 89 88 87 86 85 84 86 86 86 86 87 87 86 86 86 85 84 84 83 83 83
59 61 63 65 68 70 71 72 71 72 74 76 80 85 88 88 87 87 87 88 88 89 89 89 89 91 93 95 97 98 99 100 100 100 100 100 99 97 96 95 94 94 95 96 97 98 100 101 101 101 101 101 101 100 98 96 94 92 91 90 90 90 90 90 90 89 88 87 87 86 87 87 86 86 87 87 86 86 86 86 85 84 83 81 82
58 59 60 62 65 68 70 71 70 71 74 77 81 85 88 88 89 90 91 90 90 91 91 90 90 89 90 92 94 97 99 99 99 100 99 99 98 97 96 95 95 96 97 99 101 102 103 104 104 104 104 104 104 103 102 99 96 94 92 90 89 88 89 90 90 89 88 87 87 86 87 87 87 86 87 87 87 87 86 84 84 85 85 83 83
60 60 60 61 63 66 68 69 70 71 73 77 82 85 88 89 90 91 93 93 93 93 93 92 92 91 91 92 93 95 97 97 97 97 97 96 94 93 93 93 94 96 98 100 102 104 105 106 106 106 105 105 105 104 103 101 99 96 94 91 89 88 89 90 90 89 88 87 86 85 85 86 87 88 88 88 87 87 85 83 84 85 85 84 85
62 61 61 61 61 62 63 65 68 70 72 76 80 84 88 91 93 93 93 94 94 95 95 94 93 93 93 93 93 92 92 90 88 87 85 84 83 83 84 87 89 92 95 98 100 103 104 105 105 105 105 105 104 103 102 100 99 97 96 94 92 91 92 92 91 88 87 86 85 85 85 86 87 87 88 88 88 87 84 83 84 85 84 84 85
62 61 61 61 61 60 60 61 62 65 70 76 80 83 86 90 93 94 95 95 95 97 97 96 95 93 92 90 88 85 80 77 75 72 70 69 68 69 72 76 81 85 90 94 98 100 101 101 101 101 100 99 98 97 97 98 97 96 95 95 94 95 96 95 93 90 87 86 85 85 85 86 86 87 88 89 88 87 85 83 84 84 84 84 85
60 60 60 61 62 61 60 59 60 64 72 78 81 83 85 87 89 91 93 94 96 97 98 96 94 91 87 83 79 76 72 70 67 64 60 59 59 61 65 70 76 81 86 90 93 96 97 98 97 95 93 90 89 89 90 92 92 93 93 94 95 96 97 96 94 92 90 88 87 85 84 85 85 86 87 88 88 88 86 85 84 83 83 83 85
57 58 59 60 62 62 63 62 64 69 75 78 80 83 84 85 85 86 87 89 91 93 94 93 90 87 83 78 74 71 69 66 61 57 55 55 58 61 65 69 75 80 82 85 87 90 91 91 90 88 86 84 83 83 84 85 86 87 88 90 92 94 95 95 94 94 93 91 90 88 86 86 86 86 87 87 88 88 87 85 84 83 82 81 83
57 57 58 59 62 64 65 65 66 70 75 78 80 81 82 82 82 82 83 84 85 86 88 87 85 82 79 75 72 69 66 62 58 55 55 57 60 64 67 71 74 77 77 78 80 82 83 83 82 81 80 79 79 78 78 79 79 79 80 82 85 87 90 91 93 94 94 93 91 89 89 88 88 88 87 87 87 87 87 85 83 82 81 81 82
58 58 58 58 60 62 64 65 67 71 75 77 79 79 79 78 78 79 81 81 81 81 82 82 80 78 75 73 70 66 63 60 57 57 58 60 63 66 69 70 71 71 71 71 72 73 74 75 76 76 75 75 74 73 72 72 72 72 73 75 77 80 83 85 88 91 92 92 91 90 90 91 90 89 88 88 87 86 85 84 82 81 81 81 82
56 56 56 56 57 60 63 66 68 70 72 73 75 75 74 74 74 76 78 79 79 78 78 78 77 75 72 70 68 65 61 59 58 59 60 62 64 66 66 66 65 65 64 64 65 66 68 70 71 71 70 69 67 66 65 65 66 67 68 69 71 73 76 79 82 85 88 89 90 90 90 90 90 89 89 88 87 85 85 85 84 82 81 81 81
53 53 54 54 56 58 61 63 64 65 67 68 69 70 71 71 72 74 75 76 77 77 76 75 74 72 70 68 66 63 61 60 60 61 63 64 64 63 62 61 60 59 59 59 60 62 63 64 65 65 64 63 62 60 60 60 61 62 63 64 66 68 70 73 76 78 82 85 87 89 89 89 88 87 87 87 87 86 87 88 86 83 81 80 80
48 49 49 49 50 52 54 56 59 61 63 63 64 66 67 69 71 72 73 74 74 74 73 72 71 69 68 65 62 61 60 60 61 62 64 63 61 59 57 56 55 54 54 55 56 57 57 57 57 57 57 57 56 55 54 55 55 56 57 58 60 62 64 67 69 72 75 79 82 85 87 87 85 85 85 86 86 86 88 90 89 86 83 82 81
42 43 43 44 45 46 49 52 54 57 59 60 61 63 65 67 68 69 70 71 71 70 70 69 67 65 63 61 59 59 59 60 61 62 61 59 57 56 54 51 49 49 51 51 50 50 50 51 51 51 51 52 51 50 49 49 50 51 52 53 55 57 59 61 64 67 70 74 77 79 81 82 82 83 84 84 84 85 87 89 89 87 85 84 82
38 39 39 41 42 43 45 48 50 53 56 57 59 60 62 64 65 67 68 69 69 68 67 65 63 60 59 57 57 56 57 59 61 59 57 56 54 51 48 45 45 46 47 46 45 45 45 46 47 48 48 48 48 47 46 46 47 48 49 50 51 52 55 57 59 63 66 68 71 73 75 76 77 79 80 81 82 84 86 88 88 87 85 84 82
36 37 38 38 38 39 41 44 47 49 51 52 54 57 59 61 63 64 65 65 65 64 62 60 57 55 53 52 53 54 56 57 57 55 55 53 49 44 41 41 43 44 44 42 41 43 43 44 45 45 46 46 46 44 43 43 44 45 46 46 47 49 51 53 55 58 61 63 65 67 69 70 71 73 75 76 78 81 84 86 87 86 84 83 83
33 34 35 35 35 36 39 41 42 43 45 48 51 54 57 59 60 61 61 60 59 57 55 51 48 46 46 48 52 54 53 52 51 52 52 49 43 38 36 39 41 41 41 40 40 40 40 42 42 42 43 43 43 41 40 40 41 42 42 43 44 45 46 48 50 53 55 58 60 62 63 65 67 68 69 71 73 75 78 82 84 84 83 83 84
30 30 31 32 33 36 38 39 40 42 45 48 51 53 55 56 57 57 56 54 51 47 44 41 40 42 45 48 50 50 48 46 47 48 47 43 38 35 36 38 38 38 38 39 39 37 37 39 39 39 40 41 40 38 37 37 38 39 39 39 40 41 42 44 45 47 50 52 55 57 58 60 62 63 64 65 67 70 73 77 80 80 81 82 83
29 30 30 32 34 36 37 39 41 44 47 49 50 51 52 52 52 51 48 44 40 37 36 37 40 43 45 45 45 43 43 44 45 44 40 36 33 33 36 37 36 36 36 36 36 36 35 36 36 37 39 39 37 36 35 35 35 36 36 37 38 38 39 40 41 43 45 47 49 51 53 55 56 58 59 60 62 66 69 72 74 75 76 78 81
31 32 33 34 36 38 40 42 44 46 47 47 48 49 49 48 46 42 38 35 33 33 35 37 40 42 42 41 39 39 40 42 42 39 35 32 31 32 35 36 35 34 33 33 33 34 34 34 34 36 37 36 35 34 33 33 33 33 33 34 35 36 37 37 37 38 40 41 43 45 47 49 51 52 54 56 59 62 64 66 68 69 71 74 78
35 36 37 39 40 42 43 44 45 45 46 46 46 47 46 44 40 36 33 31 32 33 35 37 39 39 39 37 36 36 38 39 37 35 32 31 30 32 33 34 33 32 32 31 31 31 32 32 33 34 34 33 32 32 32 31 31 30 31 32 32 33 33 33 33 34 35 36 38 39 41 44 46 48 50 52 55 57 58 60 62 65 67 71 73
38 39 41 42 43 44 44 44 44 44 44 44 43 42 41 39 36 33 32 32 32 33 35 36 36 36 36 34 34 35 35 35 33 32 31 30 30 31 31 31 31 31 30 30 29 29 29 31 32 32 31 30 30 30 31 30 29 28 28 28 28 29 29 29 29 30 30 31 33 35 37 39 41 43 46 48 50 52 53 56 59 62 64 66 69
41 41 42 43 43 43 43 43 43 42 41 40 39 37 36 35 33 32 32 33 33 33 34 34 33 33 32 32 32 33 33 32 31 31 30 29 28 29 30 30 29 29 28 28 28 28 29 30 30 30 29 28 28 29 30 29 27 26 26 25 25 25 25 25 25 25 26 27 29 30 32 34 36 38 41 43 46 48 50 52 55 57 60 63 66
41 41 42 42 41 41 42 43 42 40 39 37 36 35 34 33 33 33 33 33 32 32 32 32 32 31 30 30 31 32 31 30 30 29 29 27 26 27 28 29 28 26 26 26 27 28 28 29 29 28 27 26 26 28 28 27 25 24 23 22 22 22 23 22 22 22 23 24 25 26 27 29 31 34 36 38 40 42 45 47 50 53 57 60 63
41 41 41 40 39 39 40 39 38 37 36 35 34 34 34 34 34 34 33 32 30 30 30 30 30 29 29 29 30 30 30 30 29 28 26 25 25 26 27 26 25 24 24 25 26 26 27 26 26 26 25 24 25 26 26 25 24 23 22 21 21 21 22 21 20 20 21 22 23 24 25 27 28 30 32 34 36 38 41 43 46 49 53 57 59
39 40 40 39 39 39 38 37 36 35 35 34 34 34 35 36 35 34 32 31 29 29 29 29 28 28 29 29 28 28 28 29 28 26 24 23 24 25 24 23 22 22 23 24 24 24 24 24 24 23 23 23 24 24 23 23 22 22 22 21 21 22 22 20 19 18 19 20 21 23 24 25 26 27 28 30 32 34 36 39 41 45 49 51 53
38 38 39 39 39 39 38 37 36 35 35 35 34 34 36 36 34 31 30 30 29 28 28 28 27 27 28 28 27 27 27 27 27 24 22 22 23 23 22 21 21 22 23 23 23 23 22 22 22 22 22 22 22 22 21 21 21 21 21 22 22 22 22 20 17 16 17 18 20 21 22 23 24 24 25 26 28 30 32 34 36 39 42 45 46
38 38 39 39 40 39 39 38 36 35 35 34 33 35 37 35 31 29 29 29 28 28 28 27 26 27 27 27 26 25 25 26 24 22 21 22 21 20 20 21 22 23 23 22 22 21 21 20 20 20 21 21 21 20 20 20 20 20 21 21 22 22 21 18 16 14 15 16 18 19 20 20 20 21 22 23 24 26 27 29 32 35 37 39 41
40 39 39 40 39 39 38 37 36 35 35 33 32 34 36 33 29 28 28 28 28 28 27 26 26 26 26 26 25 24 24 23 22 20 20 20 20 20 21 22 22 22 22 21 20 20 20 19 18 19 20 20 21 21 21 20 20 19 19 20 21 21 19 17 15 14 13 13 14 16 17 16 16 17 19 21 22 23 24 26 28 31 34 36 38
41 41 40 40 39 39 39 37 37 37 35 32 32 34 34 31 28 27 26 26 27 27 26 25 25 25 25 25 24 23 22 21 20 19 19 19 20 21 22 22 22 22 21 21 20 19 19 18 17 17 18 20 21 22 22 21 20 19 18 19 19 18 17 16 15 13 12 11 11 12 13 13 12 14 17 20 22 23 24 25 26 28 30 32 34
41 42 42 41 41 40 39 38 37 36 33 31 32 33 32 29 27 26 25 26 27 27 26 25 25 25 25 24 23 22 21 20 19 19 19 19 20 22 22 21 21 21 21 20 19 19 18 17 17 17 18 19 22 24 24 23 21 19 18 18 17 17 16 16 14 13 12 11 10 10 11 11 11 13 15 19 21 22 23 23 24 26 27 29 30
42 43 42 41 41 40 38 37 35 34 31 31 31 31 30 28 26 25 25 26 27 27 26 25 24 24 24 23 23 22 20 19 19 19 18 19 21 22 21 21 21 20 20 19 19 18 18 17 16 17 18 20 22 24 25 24 22 20 19 18 17 17 16 16 14 13 12 11 10 10 10 11 12 14 15 17 19 21 22 22 22 23 24 25 26
40 40 40 39 39 38 36 34 33 32 31 30 30 29 28 27 26 25 25 26 27 27 26 25 24 24 24 24 23 22 20 19 20 19 18 19 21 21 20 20 20 19 18 18 17 17 16 15 15 16 18 20 22 24 25 25 24 22 21 20 19 18 17 16 16 14 13 12 12 12 12 12 14 15 15 16 17 18 20 21 21 22 23 24 25
38 39 38 38 38 37 35 33 32 31 30 29 29 28 27 27 26 25 26 27 27 27 26 25 25 25 24 24 24 22 21 20 21 19 18 19 21 20 19 19 18 17 16 16 15 15 15 14 14 15 17 20 23 25 26 26 25 24 23 22 21 20 20 19 18 17 16 15 15 14 14 14 15 15 15 16 17 18 19 20 21 22 23 24 24
39 39 38 37 36 35 34 32 31 31 30 29 28 27 27 27 27 27 27 28 28 28 27 26 26 25 25 25 25 23 22 22 21 20 19 20 20 19 17 17 16 15 15 14 13 13 13 13 13 14 16 18 20 23 26 27 27 26 26 25 24 23 23 22 21 20 19 18 18 17 17 17 16 16 16 17 18 18 19 20 21 22 23 23 23
39 38 37 36 35 34 33 32 32 31 30 29 27 27 28 28 28 28 28 28 29 28 28 27 27 26 26 26 26 24 23 23 22 20 19 20 19 17 16 15 14 13 13 13 11 9 9 9 11 12 13 15 17 20 23 25 26 27 27 26 26 25 25 24 23 23 21 20 20 21 20 19 18 18 18 18 19 20 20 21 22 22 23 23 23
39 38 37 36 35 34 33 33 32 32 30 28 27 27 28 28 28 29 29 30 30 29 29 28 28 27 27 27 27 26 25 24 23 21 20 20 19 16 14 13 12 12 11 11 9 6 5 5 6 8 10 12 14 16 19 21 24 25 26 26 26 26 26 25 25 24 22 21 21 22 23 22 21 20 20 20 21 22 22 22 23 23 23 23 23
Wind_Direction
255 255 254 254 254 253 253 253 253 252 252 253 253 253 253 252 252 252 252 252 253 253 253 252 252 251 251 250 250 250 250 249 249 249 248 248 248 248 248 248 249 249 249 250 250 251 251 252 252 252 252 252 252 252 251 251 251 251 250 250 249 247 244 242 241 243 247 248 248 249 249 249 248 248 247 247 247 247 249 252 252 251 248 247 245
254 254 254 254 254 253 253 253 253 253 253 253 253 253 253 253 253 253 253 253 252 253 253 253 253 252 252 252 252 251 251 251 251 251 251 250 250 250 249 249 250 250 250 250 250 251 251 252 252 252 252 252 253 252 252 252 251 251 251 250 249 248 246 244 241 241 245 248 247 247 249 249 248 249 248 248 247 246 245 248 250 250 249 247 247
254 254 253 252 253 253 253 253 253 253 253 253 253 253 253 253 253 253 253 253 253 252 252 252 252 253 253 253 253 253 253 253 253 252 252 252 251 251 251 251 251 251 251 251 251 251 251 252 252 252 252 252 252 252 252 252 252 251 251 250 250 249 247 245 243 241 242 246 247 247 247 248 248 248 249 249 249 248 245 245 247 249 250 248 247
256 255 254 254 253 253 252 252 252 252 252 252 252 253 253 253 253 253 253 253 253 253 253 252 252 252 252 253 253 253 253 253 253 253 252 252 252 252 252 252 252 252 252 252 252 252 252 252 252 252 252 252 252 252 252 252 252 252 251 251 250 250 248 246 244 242 241 244 246 246 246 247 248 248 249 249 249 249 248 246 245 247 249 249 249
256 256 256 255 255 255 254 253 253 252 252 252 252 252 253 253 254 254 253 253 253 253 253 253 253 253 253 253 253 253 253 253 253 253 253 252 252 252 252 252 252 252 252 252 252 252 252 252 252 252 252 252 253 253 252 251 251 251 251 251 250 250 250 248 245 243 242 243 245 246 245 246 246 247 248 249 249 249 249 248 247 245 246 248 248
255 255 256 255 255 255 255 255 254 254 253 253 253 253 253 253 253 254 254 253 253 253 253 253 253 253 253 253 253 253 253 253 253 253 253 253 252 252 252 252 252 252 252 252 252 252 252 252 252 252 251 251 252 252 252 252 252 251 251 251 251 250 250 249 248 245 243 242 244 246 246 245 245 246 247 248 248 249 249 248 248 247 246 246 247
254 254 254 254 254 255 255 255 255 255 255 255 254 254 254 254 254 254 254 253 253 253 253 253 253 253 253 253 253 254 254 254 253 253 253 253 252 252 252 252 252 253 253 253 253 252 252 252 252 252 252 251 251 251 252 252 252 252 251 251 250 250 250 249 249 247 245 244 244 245 246 245 245 245 246 247 247 248 249 249 249 248 247 247 247
253 253 253 253 253 253 253 254 255 255 255 256 256 256 255 255 255 254 254 253 253 253 253 253 253 253 254 254 254 254 254 254 254 253 253 253 252 252 252 253 253 253 253 253 253 253 253 253 252 252 252 252 251 251 251 251 251 251 252 251 250 250 250 249 249 248 247 246 245 245 246 246 245 245 245 246 246 247 248 248 249 249 249 248 248
254 253 252 252 253 252 252 253 253 254 255 256 257 257 256 256 255 255 254 254 254 253 253 253 253 253 253 253 254 254 254 254 254 254 253 253 253 253 253 253 253 253 253 253 254 254 253 253 253 253 253 253 252 252 252 251 251 250 250 251 251 250 250 249 249 249 248 247 246 246 246 246 246 246 245 245 245 246 246 247 248 249 250 250 250
254 253 252 252 252 252 252 252 253 254 256 258 259 257 255 254 253 253 254 255 255 255 254 254 254 254 253 253 254 254 254 254 254 254 254 254 254 254 254 254 254 253 253 254 254 254 254 253 253 253 253 253 252 252 252 252 252 251 250 250 250 250 250 249 249 248 248 248 247 247 247 246 247 246 246 245 245 245 245 246 247 248 249 250 251
254 253 253 252 251 252 251 251 252 253 253 255 257 257 254 252 251 251 253 254 254 254 254 254 254 254 254 254 254 255 255 255 255 255 255 255 255 255 255 254 254 254 254 254 254 254 254 254 254 254 253 253 253 252 252 252 252 252 251 251 250 249 249 249 249 248 248 247 247 248 248 247 247 247 246 246 245 245 244 245 245 247 248 249 250
252 253 253 252 251 251 251 250 249 248 245 245 250 255 256 254 251 249 249 250 251 252 253 253 254 254 255 255 255 255 255 255 255 255 256 256 256 255 255 255 255 255 255 255 256 256 256 255 255 254 254 254 253 253 253 252 252 251 251 251 251 250 249 249 248 248 248 247 247 247 248 248 248 248 247 247 246 245 245 245 245 245 246 247 249
251 251 252 252 252 251 251 249 247 246 244 241 242 249 254 254 251 248 246 247 248 249 250 251 252 253 254 254 255 255 255 256 256 256 256 256 256 256 256 256 256 257 257 257 257 257 257 257 256 256 255 254 254 253 253 252 252 252 251 251 251 251 250 249 249 249 248 247 246 246 247 247 248 248 249 248 247 246 246 246 245 245 245 246 247
251 251 251 252 252 251 251 250 248 245 244 242 241 243 248 251 251 250 248 247 247 248 249 250 252 253 253 254 255 255 256 256 257 257 257 257 257 257 257 257 257 257 258 258 258 258 258 257 257 257 256 256 255 254 253 253 252 252 252 251 251 251 251 250 250 249 249 248 247 247 246 246 247 247 248 248 248 248 247 247 246 246 245 246 246
252 252 252 252 252 251 250 250 248 246 243 242 241 242 245 248 251 252 252 251 250 250 250 251 252 253 253 254 255 256 257 257 258 258 258 258 258 258 258 258 258 258 258 259 259 258 258 258 257 257 257 256 256 255 254 253 253 252 252 252 252 252 251 251 250 250 249 249 248 247 247 247 246 247 248 248 248 248 248 248 248 247 246 246 246
252 250 250 250 251 251 250 248 247 246 244 242 241 242 244 247 249 252 253 254 254 254 254 254 254 254 254 254 255 255 256 256 257 258 258 259 259 260 260 260 260 260 260 260 259 259 258 258 257 257 256 256 256 256 255 254 254 253 253 252 252 252 252 252 251 250 250 249 248 248 248 248 248 247 247 248 247 247 247 248 249 249 248 247 247
256 252 249 247 247 248 249 248 246 245 244 243 241 242 244 246 248 250 252 253 254 255 256 257 257 257 257 256 255 255 255 256 257 258 259 259 260 261 262 262 262 262 261 260 260 259 258 258 257 256 256 256 256 256 256 255 255 255 254 253 253 253 252 252 252 251 250 249 249 248 248 249 249 248 248 247 247 246 246 247 248 249 249 248 248
259 257 253 250 246 245 246 247 247 246 245 244 243 242 243 245 247 249 251 252 254 255 257 258 258 259 259 259 258 258 257 258 258 259 260 261 262 262 263 262 262 261 261 260 260 260 259 259 258 257 257 256 256 256 256 256 256 256 255 255 254 254 253 253 252 251 250 250 249 249 248 248 249 249 248 248 247 246 246 245 246 246 247 248 248
258 257 255 253 250 247 245 244 246 247 248 247 246 244 243 244 246 248 250 252 254 256 258 259 260 261 261 262 262 262 262 263 264 264 264 264 263 262 260 259 259 259 259 259 260 260 260 259 259 259 258 257 257 257 257 257 256 256 256 256 255 254 254 253 253 252 251 250 249 249 248 248 248 248 249 249 248 247 246 245 245 245 245 246 246
256 256 256 256 254 252 248 245 244 245 247 247 247 246 244 244 245 247 249 251 253 256 258 260 261 262 263 264 265 267 269 271 272 271 269 267 264 261 259 257 256 256 256 257 258 259 260 260 260 260 260 260 260 259 259 258 257 256 255 255 254 254 253 253 253 252 251 250 249 248 248 248 248 248 248 249 248 248 246 245 244 244 244 244 245
256 255 255 255 254 253 250 247 244 243 243 244 245 247 247 246 246 247 248 250 252 254 257 260 262 264 265 267 269 272 274 274 274 272 271 268 266 262 259 257 255 254 254 255 257 259 260 262 263 264 264 264 263 262 261 259 258 256 254 253 252 252 252 252 252 252 251 250 249 248 248 247 247 247 247 248 248 248 246 245 244 244 243 243 245
256 254 252 251 251 250 248 245 243 242 243 244 244 246 248 248 248 248 249 250 252 254 257 260 263 266 269 271 272 274 274 274 274 274 273 271 269 265 261 258 256 254 255 256 258 260 262 264 266 267 267 267 265 264 262 260 258 256 254 253 251 251 251 251 251 251 251 250 249 248 248 247 247 247 247 247 247 247 247 245 244 244 243 243 244
257 254 251 248 247 247 246 244 242 242 244 245 246 247 248 249 251 252 252 253 254 255 258 261 264 267 270 272 273 274 275 276 277 276 276 275 272 268 264 260 258 258 258 259 261 263 265 266 267 268 268 267 266 264 262 261 259 258 256 255 253 252 251 250 250 250 250 250 249 248 247 247 246 246 246 246 246 247 247 246 245 244 243 243 243
256 254 251 248 246 246 246 245 243 242 243 245 247 249 250 251 252 253 255 256 257 258 260 262 265 268 270 272 273 275 276 278 279 279 278 276 273 269 265 263 263 263 263 264 264 265 266 267 267 267 267 266 266 265 264 263 262 261 259 257 254 253 251 250 249 249 249 249 249 248 247 246 246 246 246 246 246 246 247 247 246 244 243 243 243
255 254 252 249 246 245 244 243 243 243 244 246 248 250 251 252 252 253 254 256 258 259 260 263 265 268 270 272 274 276 278 279 280 280 278 274 269 267 266 267 267 268 268 268 267 267 266 267 267 267 267 267 267 267 266 265 263 261 259 257 255 253 252 250 249 248 248 249 248 248 247 246 246 245 245 245 246 246 247 247 246 245 244 243 243
254 252 250 247 245 244 244 244 244 245 245 246 247 249 250 251 251 251 252 254 256 258 260 262 265 267 270 272 274 277 279 281 281 278 274 269 267 267 269 270 271 271 270 269 267 266 265 266 266 268 268 268 267 266 265 263 262 261 259 257 256 254 253 251 250 249 248 248 248 248 247 246 246 245 245 245 245 245 246 246 246 245 244 243 243
253 252 250 249 247 245 245 245 244 245 245 245 245 246 247 248 249 250 252 253 255 258 260 262 265 267 270 272 275 278 280 280 277 272 269 268 269 271 272 272 272 271 269 267 265 265 265 266 266 267 267 267 266 265 264 262 261 260 259 258 256 255 253 252 251 250 249 248 248 248 247 247 246 245 244 244 244 243 244 245 245 245 244 243 243
254 252 251 249 246 244 243 242 242 242 242 242 242 243 244 246 248 250 252 254 256 258 260 263 265 267 270 273 276 278 278 274 270 268 268 270 272 273 273 273 272 269 266 265 265 265 265 265 266 266 266 266 266 266 264 263 262 260 259 257 256 254 253 252 251 250 249 248 248 248 248 247 246 245 244 244 243 243 243 244 244 244 243 243 242
253 251 248 246 244 242 240 239 238 238 239 240 241 243 244 246 247 249 251 254 256 259 261 263 266 269 272 275 275 274 270 267 267 268 270 271 271 272 273 272 268 265 264 265 265 265 265 266 266 267 267 267 267 266 265 264 262 260 258 256 255 253 252 251 250 249 249 248 248 248 248 248 247 246 245 244 243 242 242 243 244 243 243 242 242
251 247 245 243 241 239 237 236 236 237 238 239 241 243 244 246 248 249 252 254 256 258 261 264 268 271 272 271 268 265 264 265 268 269 269 270 270 271 269 266 265 264 265 266 266 267 267 268 267 268 268 267 266 265 264 262 261 259 257 255 253 252 251 250 249 249 249 249 248 248 248 248 247 246 245 244 243 242 242 242 243 243 243 242 242
246 244 242 240 237 235 234 234 235 236 237 238 239 241 243 246 248 250 252 254 257 260 263 266 268 267 266 264 263 262 263 264 266 266 268 270 271 269 264 262 264 267 269 269 268 268 268 268 267 267 267 266 265 264 262 261 259 258 257 255 253 252 250 249 248 248 248 248 248 248 248 247 247 246 245 244 243 242 241 242 242 242 241 241 241
240 238 236 233 231 231 231 232 232 233 234 236 238 241 244 246 248 251 254 257 260 262 264 265 264 263 262 262 262 263 264 263 263 264 266 269 269 267 265 264 266 268 269 270 270 268 267 266 265 265 265 264 264 263 262 260 259 258 257 256 254 253 251 250 249 248 248 247 247 247 247 247 246 246 245 244 242 241 241 241 241 240 240 239 240
233 230 227 226 226 228 229 229 230 231 234 237 240 243 245 248 250 253 256 259 261 263 264 264 264 263 262 261 261 261 262 262 263 264 265 266 266 267 268 268 269 269 268 268 268 267 265 264 263 263 263 263 264 263 261 260 258 257 257 256 255 254 253 252 250 249 249 249 248 248 247 247 246 246 245 243 242 240 239 239 240 240 239 238 238
227 224 222 223 224 225 227 229 231 234 237 240 243 245 248 251 254 257 260 262 263 264 265 265 264 262 260 259 258 259 259 261 263 265 266 266 267 268 269 270 270 269 267 265 264 264 263 262 261 261 261 262 263 262 260 258 256 255 254 253 253 253 252 252 251 250 250 250 249 249 248 247 246 245 244 242 241 240 239 238 238 238 237 237 237
223 222 222 223 224 225 228 230 233 236 240 242 245 249 253 256 259 262 264 264 265 265 264 262 261 260 260 258 257 257 259 261 264 266 267 269 269 268 268 269 268 267 266 263 261 260 260 261 260 260 260 260 260 259 258 256 253 251 250 250 251 251 251 251 250 249 248 248 248 248 247 246 245 244 242 241 240 240 239 238 237 236 235 235 235
223 224 225 226 228 230 232 235 238 241 244 247 250 253 257 260 263 265 267 267 267 265 262 259 257 257 258 258 257 258 259 261 264 266 268 269 268 267 266 266 265 264 263 262 261 260 260 260 260 259 259 257 256 255 254 253 250 248 248 248 248 249 249 249 248 247 246 245 245 244 244 244 244 243 242 240 239 238 237 236 235 234 233 233 233
225 227 229 231 233 235 238 241 243 246 249 252 256 259 263 265 268 269 270 269 266 263 260 258 255 254 255 257 258 259 260 262 264 266 267 267 265 263 263 263 262 261 261 261 262 261 260 259 260 259 258 255 253 252 252 251 249 248 247 247 247 248 249 249 248 247 245 244 243 243 242 242 242 241 241 240 238 237 236 235 235 234 232 232 231
229 231 233 236 238 239 241 244 247 250 254 258 262 266 268 271 272 272 270 268 264 260 258 256 255 253 253 254 256 258 260 262 263 264 266 265 261 259 258 259 260 260 261 262 262 261 260 260 260 259 256 253 250 250 250 250 249 248 247 247 248 250 251 251 250 249 248 247 246 245 244 243 242 241 240 239 237 236 235 234 234 233 232 231 231
232 234 237 239 241 243 245 248 252 256 259 264 267 270 273 274 274 272 270 266 262 258 256 255 253 252 251 251 253 256 259 261 262 262 262 261 259 256 255 256 258 261 262 263 262 261 260 259 258 256 254 251 248 248 249 249 249 249 249 248 248 250 251 252 251 250 250 249 248 247 246 244 242 240 239 237 236 234 232 231 231 232 232 232 232
234 236 239 241 243 246 250 253 257 261 264 268 271 274 276 275 272 270 269 266 261 257 254 252 250 249 249 249 250 253 256 259 260 259 257 255 255 256 256 257 260 263 264 263 261 259 259 257 256 254 252 249 247 247 247 247 247 247 247 246 247 248 249 251 251 251 250 250 249 247 245 243 240 239 238 237 235 233 231 230 229 230 231 232 233
236 238 240 243 245 248 251 255 259 263 267 270 273 276 276 273 270 269 268 264 259 254 251 248 245 244 245 247 249 251 253 256 258 258 255 253 254 256 260 263 265 266 266 264 262 259 258 256 254 251 249 247 246 245 244 242 242 242 242 242 242 243 246 248 250 251 251 250 247 245 243 241 239 237 236 236 235 233 231 228 227 227 229 231 233
237 239 242 244 246 250 253 257 261 264 267 269 273 274 273 270 269 268 266 260 254 249 246 242 240 240 242 246 248 249 251 253 255 256 256 256 257 261 265 266 267 268 268 266 264 261 258 255 252 249 245 243 241 240 238 236 235 235 236 237 237 238 240 243 247 250 250 247 244 242 241 239 238 237 235 234 234 232 230 227 225 223 224 226 227
239 241 243 246 249 252 255 258 262 264 267 269 271 271 270 269 268 266 261 254 248 244 239 237 236 238 241 245 246 246 248 251 253 255 257 260 263 267 268 268 269 271 271 269 266 262 259 255 251 245 240 237 234 233 232 231 230 230 231 232 232 232 235 238 243 246 246 242 239 238 237 235 235 236 235 232 229 227 225 224 223 221 220 220 222
240 243 245 248 251 254 256 259 262 264 266 267 268 268 268 267 265 261 255 249 243 239 235 232 233 237 240 243 244 243 245 248 251 255 258 263 268 270 270 270 272 273 273 271 268 265 261 256 250 241 234 230 228 227 227 226 224 224 225 226 225 225 227 231 236 238 238 234 230 230 229 226 227 231 232 228 224 220 218 217 217 217 218 218 219
240 243 245 247 250 253 255 258 260 262 264 265 266 266 266 264 261 257 250 243 238 235 232 229 231 236 239 240 241 240 241 245 250 254 259 266 270 270 270 272 273 274 274 273 271 267 263 258 249 239 229 225 224 224 225 224 222 220 218 218 217 216 219 223 227 229 230 228 223 221 219 216 215 222 226 224 220 216 214 212 212 212 214 215 216
238 240 243 245 248 251 253 256 259 262 264 264 265 265 264 262 258 253 244 237 233 233 230 228 230 234 237 237 237 237 237 242 248 253 259 266 269 269 270 273 274 275 274 273 270 267 263 258 249 236 225 219 219 222 224 224 222 218 215 214 212 212 213 217 220 223 226 226 223 218 214 211 209 212 217 219 217 215 212 209 209 209 210 210 211
237 240 243 245 248 251 253 256 259 262 263 263 263 263 263 261 257 250 239 231 230 230 230 227 228 231 233 233 233 233 234 239 246 251 258 264 267 268 271 273 274 275 274 271 268 265 261 254 245 234 224 217 214 217 221 223 222 219 216 214 213 214 216 219 222 225 228 229 228 223 217 213 212 212 212 212 213 212 210 207 206 206 206 207 208
239 242 244 246 249 251 253 256 259 261 261 261 262 263 263 262 257 248 236 228 226 228 229 228 228 229 229 230 229 229 231 237 243 248 255 260 264 267 271 274 275 275 273 271 267 264 260 251 240 232 226 220 215 214 217 220 222 222 220 218 217 219 221 223 226 229 232 233 233 229 223 218 216 215 213 210 209 208 207 205 204 204 205 207 208
240 242 244 246 249 252 254 256 258 259 259 260 261 262 262 261 256 246 235 227 224 225 227 229 228 227 226 227 226 225 227 234 240 245 250 257 261 265 269 273 274 274 273 272 270 266 262 256 244 233 227 223 220 218 218 219 221 222 223 223 221 221 223 225 227 230 232 233 234 232 227 221 217 215 213 212 211 208 205 204 203 204 205 206 207
241 243 245 247 249 251 253 255 256 257 257 258 260 261 261 259 253 244 235 227 224 224 225 228 229 226 224 223 223 222 225 232 238 241 246 252 257 260 264 269 270 270 272 275 275 267 260 256 250 240 230 224 221 220 220 222 223 225 226 227 227 226 227 228 230 230 230 230 230 230 226 221 216 212 211 212 212 210 207 205 205 204 204 204 204
240 242 244 246 248 249 251 253 254 254 255 256 258 259 259 256 250 242 235 229 225 223 224 227 228 227 223 222 222 221 222 228 234 238 242 247 251 254 257 261 263 265 268 272 273 269 256 248 247 244 236 228 222 219 219 221 223 226 228 230 231 232 232 233 233 234 232 229 226 224 222 217 212 209 207 209 211 211 209 207 206 205 204 204 203
Height
10516 10519 10521 10523 10525 10527 10530 10532 10534 10535 10537 10538 10540 10542 10544 10546 10548 10549 10551 10553 10554 10556 10558 10559 10561 10562 10563 10565 10567 10568 10569 10571 10572 10574 10576 10578 10579 10580 10582 10583 10584 10586 10587 10589 10590 10591 10592 10593 10594 10596 10598 10599 10600 10602 10605 10607 10609 10611 10614 10617 10620 10623 10627 10631 10635 10635 10630 10630 10635 10636 10638 10643 10646 10648 10649 10649 10651 10654 10655 10656 10657 10658 10659 10660 10661
10507 10510 10513 10514 10516 10518 10521 10523 10525 10527 10528 10530 10532 10533 10535 10537 10539 10540 10543 10545 10547 10548 10550 10551 10552 10553 10555 10557 10558 10560 10561 10563 10564 10566 10567 10569 10570 10572 10573 10575 10576 10577 10579 10580 10582 10583 10584 10585 10586 10587 10589 10591 10591 10593 10595 10597 10600 10602 10604 10607 10610 10613 10617 10621 10626 10628 10625 10622 10625 10628 10630 10634 10638 10638 10640 10642 10643 10647 10650 10650 10650 10651 10652 10654 10655
10497 10500 10503 10505 10507 10509 10511 10513 10515 10517 10519 10520 10522 10524 10526 10528 10529 10531 10533 10535 10538 10539 10541 10542 10542 10544 10545 10547 10549 10550 10552 10554 10555 10557 10558 10560 10561 10563 10564 10566 10567 10568 10570 10571 10573 10575 10576 10576 10576 10578 10580 10582 10582 10584 10586 10588 10590 10593 10594 10597 10600 10602 10606 10611 10615 10619 10619 10615 10616 10620 10622 10625 10628 10629 10631 10635 10636 10639 10643 10644 10644 10645 10646 10648 10650
10487 10489 10492 10495 10497 10499 10501 10503 10505 10507 10509 10510 10512 10514 10516 10518 10520 10521 10523 10525 10528 10529 10531 10532 10533 10534 10535 10537 10538 10540 10542 10543 10545 10547 10548 10550 10552 10553 10555 10556 10557 10558 10560 10562 10563 10565 10566 10566 10567 10568 10570 10572 10572 10573 10576 10578 10580 10583 10584 10586 10590 10592 10595 10600 10605 10608 10611 10609 10607 10610 10613 10615 10618 10620 10622 10626 10629 10631 10634 10636 10638 10639 10640 10641 10643
10477 10479 10482 10485 10487 10488 10490 10493 10495 10496 10498 10500 10503 10505 10507 10508 10509 10510 10512 10515 10517 10519 10520 10521 10522 10523 10524 10526 10527 10529 10530 10532 10534 10535 10537 10539 10541 10542 10544 10546 10547 10549 10550 10551 10553 10554 10555 10556 10556 10557 10560 10562 10562 10562 10565 10568 10570 10572 10574 10576 10579 10582 10584 10589 10594 10597 10601 10602 10599 10599 10603 10606 10609 10611 10613 10616 10620 10623 10626 10628 10630 10632 10632 10633 10635
10467 10469 10471 10474 10476 10477 10479 10482 10484 10486 10488 10491 10493 10495 10497 10498 10498 10499 10501 10504 10506 10508 10509 10510 10511 10512 10513 10515 10516 10517 10519 10520 10522 10524 10526 10528 10529 10531 10533 10535 10537 10538 10539 10540 10541 10543 10544 10544 10544 10546 10549 10551 10551 10552 10553 10556 10559 10561 10563 10565 10568 10571 10574 10577 10581 10586 10591 10594 10592 10590 10593 10597 10600 10602 10603 10606 10611 10614 10617 10619 10621 10622 10624 10625 10627
10457 10459 10460 10462 10465 10467 10468 10470 10473 10475 10478 10481 10483 10485 10487 10487 10487 10488 10490 10492 10494 10496 10498 10498 10499 10500 10501 10503 10504 10505 10507 10508 10510 10512 10514 10516 10517 10519 10522 10524 10526 10527 10528 10529 10530 10531 10533 10533 10533 10534 10536 10539 10541 10541 10542 10544 10547 10549 10551 10554 10556 10560 10563 10566 10569 10574 10579 10583 10583 10582 10584 10587 10590 10593 10593 10597 10602 10604 10606 10609 10611 10613 10616 10619 10621
10445 10447 10449 10451 10454 10456 10457 10459 10462 10465 10467 10470 10472 10474 10474 10475 10475 10476 10477 10480 10482 10484 10486 10486 10486 10488 10489 10491 10492 10493 10495 10497 10498 10500 10502 10503 10505 10508 10510 10513 10515 10516 10517 10518 10518 10520 10521 10522 10523 10524 10525 10527 10529 10530 10531 10533 10536 10538 10540 10542 10545 10549 10552 10555 10558 10562 10567 10571 10573 10573 10574 10577 10580 10583 10584 10586 10591 10595 10596 10599 10602 10604 10607 10611 10614
10433 10436 10438 10440 10442 10443 10446 10449 10452 10455 10458 10461 10462 10462 10462 10462 10462 10462 10464 10467 10470 10472 10473 10473 10474 10475 10477 10478 10480 10481 10483 10484 10486 10487 10489 10490 10493 10497 10500 10502 10503 10504 10505 10506 10506 10508 10510 10511 10512 10513 10514 10516 10517 10518 10519 10520 10523 10527 10528 10530 10533 10537 10541 10545 10548 10551 10555 10559 10562 10563 10565 10568 10570 10572 10574 10577 10580 10584 10586 10590 10594 10595 10597 10602 10606
10421 10424 10427 10430 10430 10431 10434 10438 10442 10448 10455 10457 10452 10449 10447 10446 10447 10450 10453 10455 10458 10459 10460 10460 10461 10462 10464 10466 10468 10469 10471 10472 10473 10474 10476 10479 10482 10486 10488 10490 10491 10492 10493 10494 10495 10496 10497 10499 10500 10501 10501 10503 10504 10506 10507 10508 10511 10514 10516 10518 10522 10525 10529 10533 10536 10540 10543 10548 10551 10552 10556 10559 10559 10560 10563 10566 10569 10573 10577 10580 10584 10585 10589 10595 10597
10410 10412 10415 10418 10420 10421 10423 10427 10433 10442 10450 10449 10440 10432 10429 10429 10433 10440 10443 10443 10444 10445 10446 10447 10448 10449 10452 10454 10456 10458 10459 10459 10460 10461 10464 10468 10472 10474 10476 10477 10478 10480 10481 10482 10483 10484 10485 10486 10487 10488 10489 10489 10491 10493 10495 10496 10498 10501 10504 10506 10509 10513 10517 10521 10524 10527 10532 10537 10540 10542 10545 10548 10547 10548 10552 10555 10558 10563 10566 10570 10574 10577 10580 10585 10588
10399 10401 10403 10406 10408 10409 10412 10416 10423 10429 10431 10429 10423 10416 10412 10414 10421 10428 10429 10429 10430 10432 10432 10432 10433 10435 10438 10442 10444 10445 10445 10445 10446 10449 10453 10457 10459 10461 10463 10464 10466 10468 10469 10471 10472 10472 10472 10473 10474 10474 10475 10476 10477 10479 10481 10483 10485 10488 10492 10494 10496 10501 10505 10509 10513 10515 10520 10525 10529 10532 10534 10536 10535 10536 10540 10544 10547 10552 10556 10560 10564 10567 10570 10575 10578
10389 10391 10392 10394 10396 10398 10400 10403 10409 10414 10414 10411 10407 10401 10397 10399 10405 10411 10414 10416 10417 10417 10418 10419 10420 10422 10425 10428 10430 10431 10431 10432 10434 10438 10441 10444 10446 10448 10451 10453 10454 10456 10457 10459 10460 10460 10460 10460 10460 10461 10461 10462 10463 10465 10468 10470 10472 10475 10479 10482 10485 10488 10492 10497 10501 10504 10508 10513 10518 10522 10522 10522 10524 10525 10527 10532 10537 10541 10546 10550 10553 10557 10561 10565 10568
10379 10381 10383 10384 10384 10386 10388 10390 10395 10400 10400 10397 10395 10389 10383 10384 10389 10396 10401 10404 10405 10405 10406 10408 10409 10410 10412 10414 10416 10417 10418 10420 10423 10426 10429 10431 10433 10435 10438 10440 10443 10444 10445 10447 10448 10448 10447 10447 10447 10448 10447 10448 10449 10451 10453 10456 10458 10461 10465 10470 10473 10476 10480 10485 10489 10493 10496 10501 10506 10510 10509 10510 10514 10515 10515 10521 10527 10531 10535 10539 10542 10546 10551 10554 10558
10370 10371 10372 10373 10374 10375 10376 10378 10382 10385 10385 10385 10383 10377 10373 10373 10378 10384 10389 10391 10392 10393 10395 10397 10397 10398 10400 10401 10403 10404 10406 10408 10410 10413 10415 10417 10419 10422 10425 10428 10430 10432 10433 10434 10434 10434 10433 10433 10433 10433 10433 10433 10433 10435 10438 10441 10445 10449 10452 10457 10461 10464 10468 10473 10476 10480 10484 10488 10494 10497 10497 10498 10503 10505 10505 10510 10517 10520 10523 10527 10530 10535 10541 10546 10549
10359 10361 10362 10362 10362 10362 10363 10366 10369 10371 10372 10373 10371 10367 10365 10367 10370 10374 10376 10378 10381 10382 10383 10384 10385 10386 10387 10388 10390 10391 10392 10394 10396 10399 10401 10403 10406 10409 10412 10415 10417 10419 10420 10419 10418 10418 10416 10416 10417 10417 10418 10418 10418 10420 10423 10426 10431 10436 10440 10444 10449 10453 10457 10459 10462 10467 10471 10475 10480 10484 10485 10487 10491 10495 10496 10498 10505 10509 10511 10516 10521 10525 10530 10535 10537
10346 10348 10349 10351 10351 10350 10351 10354 10357 10358 10359 10359 10357 10357 10358 10360 10362 10363 10364 10366 10369 10370 10371 10372 10373 10373 10374 10375 10377 10377 10378 10381 10384 10386 10388 10391 10394 10397 10400 10403 10404 10405 10404 10402 10400 10400 10399 10398 10399 10400 10402 10403 10403 10405 10408 10413 10418 10423 10428 10433 10437 10442 10445 10445 10447 10453 10458 10462 10467 10472 10475 10477 10478 10482 10485 10486 10491 10495 10500 10508 10512 10512 10516 10523 10525
10333 10335 10336 10338 10339 10339 10341 10344 10345 10347 10348 10348 10346 10348 10350 10350 10351 10351 10352 10354 10357 10358 10360 10361 10361 10362 10363 10363 10364 10365 10367 10370 10372 10375 10378 10380 10384 10387 10388 10389 10389 10387 10386 10384 10383 10382 10381 10381 10382 10384 10387 10388 10389 10391 10394 10399 10405 10410 10415 10421 10425 10430 10431 10429 10432 10439 10444 10449 10455 10459 10463 10466 10467 10469 10472 10474 10477 10482 10490 10499 10500 10499 10505 10511 10513
10322 10323 10325 10326 10328 10330 10333 10336 10337 10339 10341 10339 10337 10337 10339 10339 10339 10341 10342 10345 10347 10348 10349 10350 10351 10352 10353 10353 10354 10355 10358 10360 10363 10366 10369 10370 10372 10374 10374 10373 10373 10371 10369 10368 10367 10365 10365 10366 10366 10368 10370 10372 10375 10378 10381 10386 10392 10398 10403 10408 10413 10416 10415 10414 10418 10425 10431 10437 10443 10446 10450 10453 10454 10457 10459 10461 10464 10469 10478 10485 10485 10487 10495 10498 10498
10311 10314 10316 10317 10318 10321 10324 10327 10331 10332 10330 10326 10324 10324 10325 10328 10330 10332 10334 10337 10338 10339 10339 10340 10340 10341 10342 10343 10345 10347 10350 10352 10354 10355 10356 10357 10357 10358 10358 10358 10357 10356 10354 10353 10352 10351 10350 10351 10352 10353 10355 10359 10363 10366 10369 10372 10377 10383 10388 10393 10398 10399 10397 10399 10405 10411 10417 10423 10428 10432 10436 10439 10442 10445 10447 10448 10451 10456 10464 10470 10472 10476 10482 10485 10486
10303 10305 10307 10307 10308 10310 10313 10317 10320 10319 10314 10310 10311 10311 10313 10317 10320 10323 10325 10327 10328 10329 10329 10329 10330 10331 10332 10335 10337 10339 10341 10342 10343 10342 10342 10343 10343 10343 10343 10342 10341 10340 10340 10339 10338 10339 10338 10338 10339 10340 10343 10347 10350 10352 10354 10356 10360 10366 10371 10375 10379 10380 10381 10386 10392 10396 10402 10408 10412 10417 10423 10426 10428 10432 10433 10435 10438 10442 10448 10454 10459 10463 10469 10474 10475
10293 10294 10296 10297 10297 10299 10301 10303 10305 10303 10299 10299 10301 10302 10303 10306 10310 10314 10317 10319 10320 10320 10320 10321 10321 10322 10324 10326 10328 10329 10330 10331 10331 10331 10331 10330 10329 10328 10327 10326 10325 10326 10328 10329 10329 10328 10328 10328 10329 10329 10331 10334 10335 10336 10338 10339 10342 10347 10352 10356 10361 10365 10369 10374 10378 10380 10385 10391 10396 10402 10408 10412 10414 10417 10419 10422 10425 10428 10433 10440 10446 10452 10457 10462 10464
10280 10282 10284 10285 10285 10286 10288 10291 10294 10293 10291 10291 10293 10294 10296 10299 10302 10306 10309 10310 10312 10313 10313 10313 10314 10315 10316 10317 10319 10320 10320 10320 10321 10321 10320 10319 10317 10314 10313 10313 10313 10315 10319 10321 10321 10320 10319 10318 10318 10318 10318 10319 10320 10321 10323 10325 10328 10333 10337 10341 10346 10350 10355 10360 10363 10365 10369 10374 10380 10388 10393 10396 10399 10403 10406 10409 10413 10416 10421 10426 10433 10440 10446 10450 10453
10268 10270 10272 10274 10276 10277 10280 10282 10283 10283 10283 10283 10285 10288 10290 10294 10297 10299 10300 10301 10303 10305 10305 10306 10307 10308 10308 10309 10310 10310 10310 10311 10311 10311 10309 10308 10305 10303 10302 10303 10304 10307 10310 10312 10312 10311 10309 10307 10306 10306 10306 10306 10307 10310 10312 10315 10318 10321 10324 10328 10332 10335 10340 10344 10347 10350 10354 10359 10364 10371 10376 10379 10384 10389 10393 10396 10400 10406 10410 10415 10421 10428 10433 10437 10440
10257 10259 10261 10264 10266 10267 10268 10269 10271 10273 10275 10277 10280 10282 10285 10288 10290 10292 10292 10293 10294 10296 10297 10298 10299 10300 10300 10301 10301 10301 10301 10302 10301 10300 10299 10297 10295 10293 10294 10295 10296 10298 10301 10302 10301 10300 10298 10296 10295 10294 10295 10296 10298 10301 10303 10305 10306 10309 10311 10314 10318 10321 10325 10329 10332 10336 10340 10344 10348 10353 10359 10363 10369 10375 10380 10384 10390 10396 10400 10403 10407 10414 10419 10424 10428
10247 10248 10250 10253 10255 10256 10258 10261 10264 10267 10269 10271 10274 10276 10278 10280 10281 10283 10284 10285 10286 10288 10289 10290 10291 10292 10292 10293 10293 10293 10293 10293 10292 10291 10288 10286 10286 10286 10287 10288 10289 10290 10292 10292 10290 10289 10288 10287 10286 10286 10286 10288 10289 10291 10293 10294 10296 10298 10299 10302 10306 10309 10312 10315 10319 10323 10327 10329 10333 10337 10342 10348 10355 10362 10367 10373 10379 10385 10388 10389 10393 10400 10407 10412 10417
10239 10240 10242 10245 10248 10250 10252 10254 10257 10259 10261 10264 10267 10268 10269 10270 10271 10273 10275 10277 10278 10280 10282 10283 10285 10285 10286 10286 10287 10287 10286 10285 10283 10280 10278 10278 10279 10280 10280 10281 10283 10283 10282 10281 10280 10280 10279 10279 10279 10279 10279 10279 10280 10282 10284 10286 10287 10288 10290 10292 10295 10298 10301 10304 10307 10311 10314 10316 10318 10322 10327 10333 10341 10349 10354 10360 10366 10371 10374 10375 10380 10387 10394 10399 10404
10232 10234 10236 10238 10240 10243 10245 10246 10249 10251 10253 10256 10258 10259 10260 10262 10263 10265 10267 10269 10271 10273 10275 10277 10278 10278 10279 10280 10280 10280 10278 10275 10272 10271 10271 10272 10273 10273 10273 10275 10276 10274 10272 10272 10272 10273 10272 10271 10271 10272 10272 10272 10273 10274 10276 10278 10279 10280 10282 10284 10286 10288 10290 10293 10296 10298 10300 10302 10305 10309 10314 10320 10329 10335 10340 10347 10353 10357 10360 10363 10367 10373 10380 10386 10393
10226 10227 10229 10231 10233 10235 10237 10239 10241 10243 10245 10248 10251 10253 10254 10255 10257 10259 10261 10263 10265 10266 10268 10270 10271 10272 10273 10273 10273 10272 10269 10266 10264 10264 10265 10266 10267 10267 10268 10269 10268 10265 10264 10265 10266 10266 10265 10265 10265 10265 10265 10265 10266 10267 10269 10271 10271 10272 10273 10275 10277 10279 10280 10283 10285 10287 10289 10292 10295 10299 10303 10309 10316 10321 10326 10334 10340 10343 10347 10351 10355 10360 10367 10375 10382
10219 10220 10222 10224 10227 10229 10231 10233 10235 10237 10240 10243 10245 10246 10248 10249 10251 10253 10255 10257 10259 10260 10262 10264 10265 10266 10266 10266 10264 10263 10261 10259 10259 10259 10258 10259 10261 10263 10264 10262 10259 10257 10258 10259 10260 10259 10259 10259 10259 10258 10259 10259 10259 10261 10263 10264 10264 10264 10265 10267 10269 10270 10272 10274 10276 10278 10280 10283 10286 10289 10293 10299 10304 10308 10314 10321 10326 10330 10335 10339 10343 10349 10357 10364 10370
10214 10216 10218 10220 10222 10224 10225 10227 10230 10233 10236 10238 10239 10240 10242 10244 10246 10247 10249 10251 10253 10255 10257 10259 10260 10260 10259 10257 10255 10254 10255 10255 10254 10252 10251 10253 10256 10258 10257 10254 10252 10252 10252 10253 10253 10253 10253 10252 10253 10253 10252 10252 10253 10254 10256 10257 10257 10258 10259 10260 10261 10263 10264 10266 10268 10270 10273 10275 10277 10280 10284 10288 10292 10297 10302 10308 10313 10318 10324 10327 10331 10338 10346 10352 10357
10209 10212 10214 10216 10217 10218 10220 10223 10226 10229 10230 10231 10233 10235 10236 10238 10240 10242 10244 10247 10249 10251 10252 10253 10252 10252 10250 10249 10248 10248 10249 10249 10247 10246 10247 10249 10250 10251 10249 10247 10247 10247 10247 10247 10247 10248 10248 10247 10247 10247 10246 10246 10247 10248 10250 10251 10251 10252 10253 10254 10255 10256 10258 10259 10261 10263 10265 10267 10269 10272 10276 10279 10282 10286 10292 10297 10302 10307 10312 10316 10320 10327 10334 10340 10345
10206 10208 10210 10211 10213 10215 10217 10220 10222 10223 10225 10227 10229 10230 10231 10233 10236 10238 10240 10243 10244 10245 10246 10245 10245 10243 10243 10242 10242 10242 10242 10241 10240 10241 10243 10244 10245 10243 10242 10241 10241 10242 10242 10242 10242 10242 10242 10242 10241 10241 10241 10241 10242 10243 10244 10245 10245 10246 10248 10249 10250 10251 10252 10253 10255 10257 10259 10261 10263 10265 10268 10271 10274 10278 10283 10288 10291 10295 10299 10304 10309 10316 10323 10329 10334
10202 10205 10206 10208 10209 10212 10214 10216 10217 10219 10221 10224 10225 10226 10227 10229 10231 10233 10236 10238 10239 10239 10239 10238 10237 10236 10235 10236 10237 10237 10236 10235 10235 10236 10238 10239 10238 10237 10236 10236 10236 10237 10237 10237 10237 10237 10237 10237 10236 10236 10236 10236 10238 10238 10239 10239 10240 10242 10243 10243 10245 10246 10247 10248 10250 10252 10253 10255 10257 10259 10261 10264 10267 10270 10274 10277 10280 10284 10289 10295 10300 10307 10313 10317 10322
10198 10200 10202 10204 10205 10207 10209 10211 10213 10215 10217 10219 10221 10221 10222 10224 10227 10229 10231 10232 10232 10232 10232 10232 10231 10230 10229 10230 10231 10231 10230 10230 10230 10231 10232 10233 10233 10232 10231 10231 10232 10232 10232 10232 10232 10232 10232 10232 10232 10232 10232 10233 10234 10234 10234 10235 10236 10237 10238 10239 10240 10242 10243 10245 10246 10248 10249 10250 10252 10254 10255 10257 10259 10262 10265 10268 10272 10276 10281 10287 10292 10296 10301 10305 10311
10194 10196 10198 10199 10200 10202 10205 10207 10209 10211 10213 10215 10216 10218 10219 10220 10222 10224 10225 10225 10225 10226 10225 10225 10225 10224 10224 10224 10225 10225 10225 10225 10226 10226 10227 10228 10228 10227 10227 10227 10227 10227 10228 10228 10227 10228 10228 10227 10227 10227 10228 10229 10230 10230 10229 10230 10232 10233 10234 10235 10237 10238 10239 10241 10242 10243 10245 10246 10247 10248 10250 10251 10253 10255 10258 10261 10265 10269 10273 10278 10282 10286 10291 10297 10302
10190 10192 10193 10194 10197 10199 10202 10204 10205 10207 10209 10211 10212 10214 10215 10216 10217 10218 10218 10218 10219 10219 10219 10219 10219 10219 10219 10219 10220 10220 10220 10220 10221 10222 10222 10223 10224 10223 10223 10223 10223 10223 10224 10223 10223 10223 10223 10223 10223 10224 10224 10225 10225 10225 10225 10227 10228 10230 10231 10232 10234 10235 10236 10237 10238 10240 10241 10242 10242 10244 10245 10246 10248 10250 10252 10255 10258 10262 10266 10270 10274 10279 10284 10288 10292
10187 10188 10189 10191 10194 10197 10199 10200 10202 10204 10205 10207 10209 10210 10210 10211 10212 10212 10212 10212 10213 10213 10213 10213 10213 10214 10215 10215 10215 10215 10216 10216 10217 10218 10218 10219 10220 10219 10219 10219 10219 10220 10220 10220 10220 10220 10220 10220 10220 10220 10221 10221 10221 10221 10222 10223 10225 10227 10228 10229 10231 10232 10233 10234 10235 10236 10237 10238 10239 10240 10241 10242 10243 10245 10247 10250 10253 10257 10261 10265 10268 10272 10276 10279 10283
10183 10185 10186 10189 10191 10193 10195 10197 10198 10200 10202 10203 10205 10205 10205 10206 10206 10206 10206 10206 10207 10207 10207 10208 10208 10209 10210 10211 10211 10211 10212 10212 10213 10214 10215 10215 10215 10215 10215 10215 10216 10217 10217 10217 10216 10216 10216 10216 10216 10216 10217 10217 10217 10217 10218 10220 10222 10224 10225 10226 10227 10228 10229 10231 10232 10233 10234 10234 10235 10236 10237 10238 10240 10241 10243 10246 10249 10252 10255 10259 10263 10267 10270 10273 10278
10180 10182 10184 10186 10188 10190 10192 10193 10195 10196 10198 10199 10200 10200 10200 10200 10200 10200 10200 10200 10201 10202 10202 10203 10204 10205 10206 10207 10207 10208 10208 10208 10209 10210 10211 10211 10211 10211 10211 10212 10213 10213 10213 10213 10213 10212 10212 10212 10212 10213 10213 10213 10214 10214 10216 10218 10219 10221 10222 10223 10224 10225 10226 10228 10229 10230 10231 10232 10233 10234 10234 10235 10236 10238 10240 10242 10245 10247 10251 10255 10259 10262 10265 10269 10274
10178 10180 10181 10183 10185 10186 10188 10189 10191 10192 10194 10195 10196 10196 10195 10194 10194 10195 10196 10195 10196 10197 10198 10199 10200 10201 10202 10203 10204 10204 10204 10204 10205 10206 10207 10207 10207 10208 10208 10209 10209 10209 10208 10208 10209 10209 10209 10208 10209 10209 10209 10210 10210 10212 10213 10215 10216 10217 10219 10220 10221 10222 10224 10225 10227 10228 10229 10230 10231 10231 10232 10233 10234 10236 10238 10240 10242 10245 10248 10251 10255 10258 10262 10266 10271
10174 10176 10178 10180 10181 10183 10184 10186 10187 10189 10190 10191 10191 10191 10190 10189 10190 10190 10191 10190 10191 10193 10194 10195 10196 10197 10198 10199 10200 10201 10201 10201 10202 10203 10203 10203 10204 10205 10205 10205 10205 10204 10205 10205 10205 10205 10205 10205 10205 10206 10206 10207 10208 10209 10210 10212 10213 10214 10216 10217 10218 10220 10221 10223 10224 10226 10227 10228 10229 10230 10230 10231 10233 10234 10236 10238 10240 10243 10245 10248 10252 10255 10258 10262 10267
10171 10173 10174 10176 10177 10179 10180 10182 10183 10184 10185 10186 10187 10186 10185 10184 10185 10186 10186 10186 10187 10188 10190 10192 10193 10194 10195 10195 10196 10197 10197 10198 10198 10199 10200 10200 10201 10201 10201 10201 10201 10201 10201 10201 10202 10202 10202 10202 10202 10203 10203 10204 10205 10206 10208 10209 10211 10212 10213 10214 10216 10217 10219 10221 10222 10224 10225 10226 10227 10228 10229 10230 10231 10233 10235 10237 10239 10241 10243 10246 10249 10252 10255 10258 10262
10167 10169 10170 10172 10173 10174 10175 10177 10178 10179 10180 10181 10182 10181 10180 10180 10181 10181 10182 10182 10183 10184 10187 10188 10189 10190 10191 10192 10193 10193 10194 10195 10195 10196 10197 10197 10198 10198 10198 10198 10198 10198 10198 10198 10198 10198 10198 10199 10199 10200 10201 10201 10202 10204 10205 10207 10209 10210 10211 10212 10214 10215 10217 10219 10220 10222 10223 10225 10226 10227 10228 10229 10230 10231 10233 10235 10237 10239 10241 10243 10246 10249 10252 10255 10259
10163 10164 10165 10167 10168 10169 10170 10172 10173 10174 10175 10176 10176 10176 10176 10176 10176 10177 10178 10178 10179 10181 10183 10185 10186 10187 10188 10188 10189 10190 10191 10192 10193 10193 10194 10195 10195 10195 10195 10195 10195 10195 10195 10195 10195 10195 10195 10196 10196 10197 10198 10199 10200 10201 10203 10204 10206 10208 10209 10210 10212 10214 10215 10217 10219 10220 10222 10223 10224 10225 10226 10227 10229 10230 10232 10233 10235 10237 10239 10241 10244 10247 10250 10253 10257
10157 10158 10160 10162 10164 10165 10166 10167 10168 10169 10170 10171 10171 10171 10171 10171 10171 10172 10174 10174 10175 10177 10179 10181 10183 10183 10184 10185 10186 10187 10188 10189 10190 10191 10192 10192 10192 10192 10192 10192 10192 10192 10192 10192 10192 10192 10192 10192 10193 10194 10195 10196 10198 10199 10200 10202 10204 10206 10208 10209 10210 10212 10213 10215 10217 10219 10220 10221 10223 10224 10225 10226 10227 10228 10230 10232 10234 10236 10238 10240 10243 10245 10249 10252 10255
10153 10154 10156 10158 10159 10160 10161 10163 10164 10165 10166 10166 10166 10166 10166 10166 10167 10168 10169 10171 10172 10173 10175 10177 10179 10180 10181 10182 10183 10184 10185 10186 10187 10188 10190 10190 10189 10189 10190 10190 10189 10189 10189 10189 10189 10189 10189 10189 10190 10191 10192 10193 10195 10196 10198 10200 10202 10204 10206 10207 10209 10211 10212 10214 10215 10217 10218 10220 10221 10222 10224 10225 10226 10227 10230 10232 10234 10236 10237 10239 10242 10244 10247 10250 10253
10148 10150 10151 10152 10154 10155 10156 10158 10159 10160 10161 10162 10162 10162 10162 10162 10162 10164 10165 10167 10168 10169 10171 10173 10175 10177 10178 10179 10180 10181 10182 10183 10184 10186 10187 10187 10187 10187 10187 10187 10187 10187 10186 10186 10186 10186 10186 10187 10188 10188 10189 10191 10192 10194 10195 10197 10199 10201 10203 10205 10207 10209 10211 10212 10214 10215 10217 10218 10219 10221 10222 10223 10225 10227 10229 10231 10233 10235 10237 10239 10241 10243 10246 10249 10251
10142 10144 10145 10147 10149 10150 10152 10153 10154 10155 10156 10157 10157 10158 10158 10158 10158 10159 10161 10163 10164 10166 10167 10169 10172 10173 10175 10176 10177 10178 10179 10180 10181 10183 10184 10185 10185 10185 10185 10185 10185 10184 10184 10184 10184 10184 10184 10184 10185 10186 10187 10188 10190 10191 10193 10194 10196 10198 10200 10203 10205 10207 10209 10210 10212 10214 10215 10216 10218 10219 10221 10222 10224 10226 10228 10230 10233 10234 10236 10238 10240 10243 10245 10248 10251
10137 10138 10140 10142 10144 10146 10147 10148 10149 10150 10151 10152 10153 10153 10153 10154 10154 10155 10157 10159 10161 10162 10164 10166 10168 10170 10171 10173 10174 10175 10176 10177 10178 10180 10182 10182 10182 10183 10183 10183 10183 10183 10182 10182 10182 10183 10183 10183 10184 10184 10185 10186 10188 10189 10191 10192 10194 10196 10198 10200 10202 10204 10206 10208 10209 10211 10213 10215 10216 10217 10219 10221 10223 10225 10227 10229 10231 10233 10235 10237 10239 10242 10244 10247 10250
10132 10133 10135 10137 10139 10140 10142 10143 10144 10145 10147 10148 10148 10149 10149 10149 10150 10151 10153 10155 10157 10159 10160 10162 10164 10166 10168 10169 10171 10172 10174 10174 10176 10177 10179 10180 10180 10181 10181 10181 10181 10181 10181 10181 10181 10181 10182 10182 10183 10183 10184 10185 10186 10187 10188 10190 10192 10193 10195 10197 10199 10201 10202 10204 10206 10208 10210 10212 10214 10215 10217 10219 10221 10223 10226 10228 10230 10232 10234 10236 10239 10241 10244 10246 10249